Weather History for West Plains, MO

Change the Weather History Date:

Wednesday, July 17, 2013

  Actual Average Record
Temperature  
Mean Temperature 80 °F 78 °F  
Max Temperature 93 °F 90 °F 103 °F (1980)
Min Temperature 67 °F 67 °F 53 °F (2014)
Degree Days  
Heating Degree Days 0 0  
Month to date heating degree days 0 0  
Since 1 June heating degree days 9 5  
Since 1 July heating degree days 0 0  
Cooling Degree Days 15 13  
Month to date cooling degree days 166 217  
Year to date cooling degree days 426 605  
Since 1 June cooling degree days 314 483  
Growing Degree Days 30 (Base 50)    
Moisture  
Dew Point 67 °F    
Average Humidity 69    
Maximum Humidity 100    
Minimum Humidity 38    
Precipitation  
Precipitation 0.00 in 0.11 in 2.22 in (2007)
Month to date precipitation 0.13 2.05  
Year to date precipitation 25.62 25.34  
Sea Level Pressure  
Sea Level Pressure 30.27 in    
Wind  
Wind Speed 3 mph (East)    
Max Wind Speed 14 mph    
Max Gust Speed 17 mph    
Visibility 9 miles    
Events      
T = Trace of Precipitation, MM = Missing Value Source: NWS Daily Summary

Daily Weather History Graph

Daily Weather History Graph

Search for Another Location

Airport:

Trip Planner

Search our weather history database for the weather conditions in past years. The results will help you decide how hot, cold, wet, or windy it might be!

Date:

Astronomy

Jul. 17, 2013 Rise Set
Actual Time 6:01 AM CDT 8:25 PM CDT
Civil Twilight 5:31 AM CDT 8:55 PM CDT
Nautical Twilight 4:55 AM CDT 9:31 PM CDT
Astronomical Twilight 4:14 AM CDT 10:12 PM CDT
Moon 3:16 PM CDT (7/17) 1:06 AM CDT (7/17)
Length of Visible Light 15h 23m
Length of Day
14h 23m
Waxing Gibbous, 67% of the Moon is Illuminated
Jul 17
Waxing Gibbous
Jul 22
Full
Jul 29
Last Quarter
Aug 6
New
Aug 14
First Quarter

Hourly Weather History & Observations

Time (CDT) Temp. Heat Index Dew Point Humidity Pressure Visibility Wind Dir Wind Speed Gust Speed Precip Events Conditions
12:53 AM 73.0 °F - 70.0 °F 90% 30.29 in 10.0 mi Calm Calm - N/A   Clear
1:53 AM 70.0 °F - 68.0 °F 93% 30.29 in 10.0 mi Calm Calm - N/A   Clear
2:53 AM 70.0 °F - 68.0 °F 93% 30.28 in 6.0 mi Calm Calm - N/A   Clear
3:53 AM 70.0 °F - 68.0 °F 93% 30.29 in 9.0 mi Calm Calm - N/A   Clear
4:53 AM 68.0 °F - 68.0 °F 100% 30.29 in 8.0 mi Calm Calm - N/A   Clear
5:53 AM 68.0 °F - 66.0 °F 93% 30.30 in 7.0 mi Calm Calm - N/A   Clear
6:53 AM 71.1 °F - 69.1 °F 93% 30.32 in 6.0 mi Calm Calm - N/A   Clear
7:53 AM 75.9 °F - 70.0 °F 82% 30.32 in 10.0 mi NE 3.5 mph - N/A   Clear
8:53 AM 80.1 °F 83.2 °F 70.0 °F 71% 30.33 in 10.0 mi Calm Calm - N/A   Clear
9:53 AM 84.9 °F 88.2 °F 68.0 °F 57% 30.32 in 10.0 mi East 4.6 mph - N/A   Clear
10:53 AM 86.0 °F 88.2 °F 66.0 °F 51% 30.32 in 10.0 mi Variable 5.8 mph - N/A   Clear
11:53 AM 89.1 °F 90.3 °F 64.0 °F 43% 30.31 in 10.0 mi East 6.9 mph - N/A   Partly Cloudy
12:53 PM 89.1 °F 90.3 °F 64.0 °F 43% 30.31 in 10.0 mi Variable 5.8 mph - N/A   Scattered Clouds
1:53 PM 90.0 °F 91.7 °F 64.9 °F 43% 30.29 in 10.0 mi NE 11.5 mph 17.3 mph N/A   Partly Cloudy
2:53 PM 89.1 °F 90.0 °F 63.0 °F 42% 30.27 in 10.0 mi Variable 5.8 mph - N/A   Clear
3:53 PM 91.9 °F 92.9 °F 63.0 °F 38% 30.25 in 10.0 mi Variable 4.6 mph - N/A   Clear
4:53 PM 93.0 °F 94.6 °F 64.0 °F 38% 30.23 in 10.0 mi ESE 8.1 mph - N/A   Mostly Cloudy
5:53 PM 86.0 °F 89.4 °F 68.0 °F 55% 30.22 in 10.0 mi ENE 6.9 mph - N/A   Clear
6:53 PM 88.0 °F 91.4 °F 68.0 °F 51% 30.20 in 10.0 mi East 5.8 mph - N/A   Clear
7:53 PM 84.9 °F 88.8 °F 69.1 °F 59% 30.20 in 10.0 mi Calm Calm - N/A   Clear
8:53 PM 80.1 °F 83.2 °F 70.0 °F 71% 30.22 in 10.0 mi Calm Calm - N/A   Clear
9:53 PM 79.0 °F - 69.1 °F 72% 30.23 in 10.0 mi Calm Calm - N/A   Clear
10:53 PM 75.0 °F - 69.1 °F 82% 30.24 in 10.0 mi Calm Calm - N/A   Clear
11:53 PM 75.0 °F - 70.0 °F 84% 30.23 in 10.0 mi Calm Calm - N/A   Clear